COSMOS 2419 (GLONASS)

Satellite information

Favourite Embed

Satellite Type and Status

PAYLOADIN ORBIT

Key statistics

Satellite COSMOS 2419 (GLONASS) at a glance.

Uptime

7253

Days in orbit

Revolutions

≈ 2.1

Per day

Orbit

MEO

Medium Earth Orbit

Inclination

65.7

Latest

Satellite identification and parameters

Extended collection of information and parameters for COSMOS 2419 (GLONASS).

Object identification

Identified? True

Debris? False

Object name: COSMOS 2419 (GLONASS)

International designator: 2005-050A

Object number (NORAD): 28915

Object ID (CCSDS): 28915

Country: COMMONWEALTH OF INDEPENDENT STATES (CIS)

Current information (Y/N): Y

RCS size: LARGE

Orbital parameters

Period: 675.713 minutes

Inclination: 65.6969 deg

SMA: 25507.526 km

Apoapsis: 19166.865 km

Periapsis: 19091.918 km

RAAN: 323.778 deg

Eccentricy: 0.00146913

Argument of periapsis: 328.4412 deg

Mean anomaly: 22.4306 deg

Mean motion: 2.13108241 rev/day

Mean motion (dot): -0.00000004 rev/day2

B* drag term: 0.0 1/REarth

Two-line elements (TLE)

Creation date: Nov. 1, 2025, 7:40 p.m.

Reference frame: TEME

Reference center: EARTH

Epoch: Nov. 1, 2025, 2:47 a.m. UTC

TLE line 0: 0 COSMOS 2419 (GLONASS)

TLE line 1: 1 28915U 05050A 25305.11637791 -.00000004 00000-0 00000-0 0 9990

TLE line 2: 2 28915 65.6969 323.7780 0014691 328.4412 22.4306 2.13108241154507

Live tracking on map

Real-time ground track for satellite COSMOS 2419 (GLONASS).

In-orbit conjunctions

There are no conjunctions computed for COSMOS 2419 (GLONASS), at the moment. Check back to stay up to date, as we update our databases every day.

Go to all conjunctions

Associated space launch

GLONASS navigation satellites

COSMOS 2419 (GLONASS) was lifted into orbit during the mission ‘Proton | Uragan 87, Uragan-M 4 & 5’, on board a Proton space rocket.

The launch took place on Dec. 25, 2005, 5:07 a.m. from 81/24 (81P).

For more information about the launch, click the button.

Launch to space Proton | Uragan 87, Uragan-M 4 & 5
Proton | Uragan 87, Uragan-M 4 & 5

Agency: N/A

Status: Launch Successful

Launch date: Dec. 25, 2005, 5:07 a.m. UTC

Rocket: Proton

Launch pad: 81/24 (81P)

Location: Baikonur Cosmodrome, Republic of Kazakhstan

...

Latest news about this satellite

There are no fresh news available about this satellite. Check back as we update our databases every day.


Newsletter sign-up

Weekly statistics, charts and insights to help you stay on top of the space industry.